Date String (YYYY-MM-DD hh:mm:ss) UTC,Instrument flags,absolute air pressure of the measurement (hPa),sample flow rate (lpm),inlet stack bypass flow (lpm),air temperature of the measurement (°C),ambient temperature measured by the external sensor (°C),aerosol sample conditioner tube jacket temperature (°C),OPC LED temperature (°C),internal box temperature (°C),relative humidity of the measurement (%),span deviation,mass concentration of particles derived from Lorenz-Mie calculation of OPC scattering (μg/m³),mass concentration of particles derived from Lorenz-Mie calculation of OPC scattering (μg/m³),mass concentration of particles derived from Lorenz-Mie calculation of OPC scattering (μg/m³)
DateTimeUTC,F1_M11,P_M11,Q1_M11,Q2_M11,T1_M11,T2_M11,T3_M11,T4_M11,T5_M11,U1_M11,ZSPAN_M11,X0_M11,X2_M11,X1_M11
2023-12-16 23:00:00,SystemResetWarning,0830.6,5.00,000.00,026.1,025.2,000.0,034.2,027.5,9.4,0000.0,0001.92,0000.30,0000.24
2023-12-16 23:01:00,SystemResetWarning,0830.6,5.00,000.00,026.1,025.2,000.0,034.2,027.6,9.0,0000.0,0001.95,0000.32,0000.25
2023-12-16 23:02:00,SystemResetWarning,0830.7,5.00,000.00,026.1,025.2,000.0,034.3,027.6,9.4,0000.0,0001.93,0000.33,0000.27
2023-12-16 23:03:00,SystemResetWarning,0830.6,5.01,000.00,026.1,025.2,000.0,034.3,027.6,9.9,0000.0,0002.63,0000.47,0000.40
2023-12-16 23:04:00,SystemResetWarning,0830.7,5.01,000.00,026.2,025.3,000.0,034.3,027.6,10.0,0000.0,0003.12,0000.76,0000.62
2023-12-16 23:05:00,SystemResetWarning,0830.5,4.99,000.00,026.2,025.3,000.0,034.3,027.6,10.0,0000.0,0003.38,0000.94,0000.79
2023-12-16 23:06:00,SystemResetWarning,0830.4,4.99,000.00,026.2,025.3,000.0,034.3,027.6,10.1,0000.0,0003.87,0001.24,0001.03
2023-12-16 23:07:00,SystemResetWarning,0830.6,5.00,000.00,026.2,025.3,000.0,034.3,027.6,10.1,0000.0,0004.15,0001.58,0001.34
2023-12-16 23:08:00,SystemResetWarning,0830.6,5.01,000.00,026.2,025.3,000.0,034.3,027.6,10.1,0000.0,0003.66,0002.02,0001.73
2023-12-16 23:09:00,SystemResetWarning,0830.6,5.01,000.00,026.2,025.3,000.0,034.3,027.6,10.2,0000.0,0004.59,0002.60,0002.23
2023-12-16 23:10:00,SystemResetWarning,0830.7,5.00,000.00,026.2,025.3,000.0,034.4,027.7,10.3,0000.0,0005.44,0003.16,0002.80
2023-12-16 23:11:00,SystemResetWarning,0830.7,5.00,000.00,026.3,025.3,000.0,034.4,027.7,10.3,0000.0,0006.41,0003.54,0003.24
2023-12-16 23:12:00,SystemResetWarning,0830.5,5.00,000.00,026.3,025.3,000.0,034.4,027.7,10.3,0000.0,0007.33,0003.91,0003.57
2023-12-16 23:13:00,SystemResetWarning,0830.7,5.00,000.00,026.3,025.4,000.0,034.4,027.7,10.3,0000.0,0007.88,0004.26,0003.88
2023-12-16 23:14:00,SystemResetWarning,0830.6,4.99,000.00,026.3,025.4,000.0,034.4,027.7,10.2,0000.0,0008.12,0004.61,0004.17
2023-12-16 23:15:00,SystemResetWarning,0830.6,4.99,000.00,026.3,025.4,000.0,034.4,027.7,10.2,0000.0,0008.50,0004.89,0004.41
2023-12-16 23:16:00,SystemResetWarning,0830.6,5.00,000.00,026.3,025.4,000.0,034.4,027.8,10.2,0000.0,0009.44,0005.19,0004.65
2023-12-16 23:17:00,SystemResetWarning,0830.6,5.01,000.00,026.3,025.4,000.0,034.4,027.8,10.0,0000.0,0009.87,0005.46,0004.89
2023-12-16 23:18:00,SystemResetWarning,0830.6,5.01,000.00,026.3,025.4,000.0,034.5,027.8,10.0,0000.0,0010.17,0005.68,0005.09
2023-12-16 23:19:00,SystemResetWarning,0830.6,5.00,000.00,026.4,025.4,000.0,034.5,027.8,9.5,0000.0,0010.37,0005.84,0005.23
2023-12-16 23:20:00,SystemResetWarning,0830.6,4.98,000.00,026.4,025.4,000.0,034.5,027.8,9.5,0000.0,0010.48,0005.96,0005.31
2023-12-16 23:21:00,SystemResetWarning,0830.6,5.00,000.00,026.4,025.4,000.0,034.5,027.8,8.9,0000.0,0010.55,0005.99,0005.32
2023-12-16 23:22:00,SystemResetWarning,0830.7,5.01,000.00,026.4,025.4,000.0,034.5,027.8,8.8,0000.0,0010.81,0005.97,0005.32
2023-12-16 23:23:00,SystemResetWarning,0830.6,5.01,000.00,026.4,025.4,000.0,034.5,027.8,9.0,0000.0,0011.17,0005.89,0005.26
2023-12-16 23:24:00,SystemResetWarning,0830.7,4.99,000.00,026.4,025.4,000.0,034.5,027.8,9.2,0000.0,0011.25,0005.81,0005.17
2023-12-16 23:25:00,SystemResetWarning,0830.6,4.99,000.00,026.4,025.4,000.0,034.5,027.8,9.1,0000.0,0011.74,0005.58,0004.99
2023-12-16 23:26:00,SystemResetWarning,0830.7,4.99,000.00,026.4,025.5,000.0,034.6,027.8,9.4,0000.0,0011.38,0005.27,0004.75
2023-12-16 23:27:00,SystemResetWarning,0830.7,4.99,000.00,026.4,025.5,000.0,034.6,027.8,9.5,0000.0,0010.50,0005.02,0004.53
2023-12-16 23:28:00,SystemResetWarning,0830.6,5.01,000.00,026.4,025.5,000.0,034.6,027.8,9.1,0000.0,0010.11,0004.82,0004.37
2023-12-16 23:29:00,SystemResetWarning,0830.7,5.01,000.00,026.4,025.5,000.0,034.6,027.8,9.3,0000.0,0009.90,0004.65,0004.21
2023-12-16 23:30:00,SystemResetWarning,0830.7,5.01,000.00,026.4,025.5,000.0,034.6,027.8,9.2,0000.0,0009.78,0004.55,0004.11
2023-12-16 23:31:00,SystemResetWarning,0830.7,5.00,000.00,026.4,025.5,000.0,034.6,027.8,9.0,0000.0,0009.62,0004.44,0004.04
2023-12-16 23:32:00,SystemResetWarning,0830.7,4.99,000.00,026.5,025.5,000.0,034.6,027.8,8.8,0000.0,0009.60,0004.31,0003.93
2023-12-16 23:33:00,SystemResetWarning,0830.7,4.99,000.00,026.5,025.5,000.0,034.6,027.8,8.9,0000.0,0009.87,0004.27,0003.89
2023-12-16 23:34:00,SystemResetWarning,0830.7,4.99,000.00,026.5,025.5,000.0,034.6,027.9,9.1,0000.0,0009.36,0004.24,0003.85
2023-12-16 23:35:00,SystemResetWarning,0830.7,5.01,000.00,026.5,025.5,000.0,034.6,027.9,9.1,0000.0,0009.10,0004.21,0003.84
2023-12-16 23:36:00,SystemResetWarning,0830.7,5.00,000.00,026.5,025.5,000.0,034.6,027.8,8.8,0000.0,0008.40,0004.23,0003.83
2023-12-16 23:37:00,SystemResetWarning,0830.7,5.01,000.00,026.5,025.5,000.0,034.7,027.9,8.7,0000.0,0008.28,0004.30,0003.87
2023-12-16 23:38:00,SystemResetWarning,0830.7,5.01,000.00,026.5,025.5,000.0,034.7,027.9,8.7,0000.0,0008.34,0004.36,0003.91
2023-12-16 23:39:00,SystemResetWarning,0830.7,5.00,000.00,026.5,025.5,000.0,034.7,027.9,8.4,0000.0,0008.40,0004.38,0003.92
2023-12-16 23:40:00,SystemResetWarning,0830.7,5.00,000.00,026.5,025.5,000.0,034.7,027.9,8.3,0000.0,0009.02,0004.38,0003.90
2023-12-16 23:41:00,SystemResetWarning,0830.7,5.00,000.00,026.5,025.5,000.0,034.7,027.9,8.2,0000.0,0009.05,0004.29,0003.81
2023-12-16 23:42:00,SystemResetWarning,0830.7,5.00,000.00,026.5,025.5,000.0,034.7,027.9,8.2,0000.0,0008.80,0004.13,0003.68
2023-12-16 23:43:00,SystemResetWarning,0830.7,5.00,000.00,026.5,025.5,000.0,034.7,027.9,8.4,0000.0,0008.64,0003.99,0003.56
2023-12-16 23:44:00,SystemResetWarning,0830.7,4.99,000.00,026.5,025.5,000.0,034.7,027.9,8.4,0000.0,0007.67,0003.80,0003.37
2023-12-16 23:45:00,SystemResetWarning,0830.7,5.02,000.00,026.5,025.5,000.0,034.7,027.9,8.3,0000.0,0007.30,0003.58,0003.19
2023-12-16 23:46:00,SystemResetWarning,0830.7,5.00,000.00,026.5,025.5,000.0,034.7,027.9,8.3,0000.0,0006.80,0003.39,0002.97
2023-12-16 23:47:00,SystemResetWarning,0830.7,4.99,000.00,026.5,025.5,000.0,034.7,027.9,8.4,0000.0,0006.46,0003.28,0002.82
2023-12-16 23:48:00,SystemResetWarning,0830.7,4.99,000.00,026.5,025.5,000.0,034.7,027.9,8.2,0000.0,0006.27,0003.18,0002.67
2023-12-16 23:49:00,SystemResetWarning,0830.7,5.01,000.00,026.5,025.5,000.0,034.7,027.9,8.2,0000.0,0005.92,0003.00,0002.45
2023-12-16 23:50:00,SystemResetWarning,0830.7,5.01,000.00,026.5,025.5,000.0,034.7,027.9,8.1,0000.0,0005.52,0002.69,0002.20
2023-12-16 23:51:00,SystemResetWarning,0830.7,5.00,000.00,026.5,025.5,000.0,034.7,027.9,8.0,0000.0,0004.14,0002.54,0002.09
2023-12-16 23:52:00,SystemResetWarning,0830.8,5.00,000.00,026.5,025.5,000.0,034.7,027.9,8.0,0000.0,0003.54,0002.35,0001.95
2023-12-16 23:53:00,SystemResetWarning,0830.7,4.99,000.00,026.5,025.5,000.0,034.7,027.9,8.0,0000.0,0003.12,0002.12,0001.77
2023-12-16 23:54:00,SystemResetWarning,0830.8,4.99,000.00,026.5,025.5,000.0,034.8,027.9,8.1,0000.0,0002.81,0001.93,0001.62
2023-12-16 23:55:00,SystemResetWarning,0830.8,5.00,000.00,026.5,025.5,000.0,034.8,027.9,8.5,0000.0,0002.56,0001.79,0001.52
2023-12-16 23:56:00,SystemResetWarning,0830.8,5.00,000.00,026.5,025.5,000.0,034.8,027.9,8.4,0000.0,0002.45,0001.73,0001.44
2023-12-16 23:57:00,SystemResetWarning,0830.8,5.00,000.00,026.5,025.5,000.0,034.8,027.9,8.1,0000.0,0002.40,0001.67,0001.38
2023-12-16 23:58:00,SystemResetWarning,0830.8,5.00,000.00,026.5,025.6,000.0,034.8,027.9,8.0,0000.0,0002.32,0001.60,0001.30
2023-12-16 23:59:00,SystemResetWarning,0830.8,5.00,000.00,026.5,025.6,000.0,034.8,027.9,8.0,0000.0,0002.30,0001.60,0001.32
